Find POPACS 1

NORAD ID: 39268 Int'l Des: 2013-055 Owner: POPACS Country: US decayed
LEOPOLAR

Historical Track — Jan 26, 2026

Loading 3D Globe...

About POPACS 1

Description loading...

Altitude History

Loading altitude history...

Two-Line Element Set

1 39268U 13055D 26021.81096740 .01425461 -86095-6 68470-3 0 9994
2 39268 80.9441 157.9048 0049078 258.9893 100.5867 16.18153837649966
Epoch: Jan 21, 2026 • Age: 2612 hours

Current Status

Position data unavailable
Launch Date Sep 29, 2013
Age 12.6 years
Decay Date Jan 26, 2026
Type other

Technical Details

Classification Payload
Mass 1.00 kg
Dry Mass 1.00 kg
Total Mass 1.00 kg
Length 0.10 m
Diameter 0.10 m
Span 0.10 m
Shape Sphere
Manufacturer PSC
Bus Type POPACS
Phase Status Reentered
Owner/State POPACS/US

Most Searched